GW2629 Weather Reports


time (UTC)temp
C
wind
direction
speed
KPH
gust
KPH
rain 1hr
cm
rain 24hr
cm
rain mn
cm
humidity
%
barometer
mb
20260506104555 15 0 0.0 0.0 0.00 0.05 0.00 88 1018.7
20260506104037 15 0 0.0 0.0 0.00 0.05 0.00 88 1018.6
20260506103537 15 0 0.0 0.0 0.00 0.05 0.00 88 1018.6
20260506103044 15 0 0.0 0.0 0.00 0.05 0.00 88 1018.6
20260506102537 15 0 0.0 0.0 0.00 0.05 0.00 87 1018.6
20260506102037 15 0 0.0 0.0 0.00 0.05 0.00 87 1018.5
20260506101550 15 0 0.0 0.0 0.00 0.05 0.00 87 1018.5
20260506101037 15 0 0.0 0.0 0.00 0.05 0.00 87 1018.4
20260506100537 15 0 0.0 0.0 0.00 0.05 0.00 87 1018.5
20260506100103 15 0 0.0 0.0 0.00 0.05 0.00 87 1018.4
20260506095544 15 0 0.0 0.0 0.00 0.10 0.00 87 1018.4
20260506095037 15 0 0.0 0.0 0.00 0.10 0.00 87 1018.4
20260506094550 15 0 0.0 0.0 0.00 0.10 0.00 87 1018.4
20260506094033 15 0 0.0 0.0 0.00 0.10 0.00 87 1018.3
20260506093535 15 0 0.0 0.0 0.00 0.10 0.00 87 1018.3
20260506093047 15 0 0.0 0.0 0.00 0.10 0.00 86 1018.4
20260506092536 15 0 0.0 0.0 0.00 0.10 0.00 86 1018.4
20260506092037 15 0 0.0 0.0 0.00 0.10 0.00 86 1018.3
20260506091548 15 0 0.0 0.0 0.00 0.10 0.00 86 1018.4
20260506091038 15 0 0.0 0.0 0.00 0.10 0.00 86 1018.3
20260506090537 15 0 0.0 0.0 0.00 0.10 0.00 86 1018.3
20260506090051 15 0 0.0 0.0 0.00 0.10 0.00 86 1018.3
20260506085537 16 0 0.0 0.0 0.00 0.15 0.00 85 1018.3
20260506085039 16 0 0.0 0.0 0.00 0.15 0.00 85 1018.3
20260506084553 16 0 0.0 0.0 0.00 0.15 0.00 85 1018.4
20260506084035 16 0 0.0 0.0 0.00 0.15 0.00 85 1018.4
20260506083537 16 0 0.0 0.0 0.00 0.15 0.00 84 1018.5
20260506083055 16 0 0.0 0.0 0.00 0.15 0.00 84 1018.3
20260506082536 16 0 0.0 0.0 0.00 0.15 0.00 84 1018.4
20260506082036 16 0 0.0 0.0 0.00 0.15 0.00 83 1018.3
20260506081601 16 0 0.0 0.0 0.00 0.15 0.00 83 1018.3
20260506081038 16 0 0.0 0.0 0.00 0.15 0.00 83 1018.3
20260506080537 16 0 0.0 0.0 0.00 0.15 0.00 83 1018.3
20260506073051 16 0 0.0 0.0 0.00 0.18 0.00 82 1018.1
20260506072539 16 0 0.0 0.0 0.00 0.18 0.00 82 1018.0
20260506072037 16 0 0.0 0.0 0.00 0.18 0.00 82 1017.9
20260506071550 16 0 0.0 0.0 0.00 0.18 0.00 81 1017.9
20260506071037 16 0 0.0 0.0 0.00 0.18 0.00 82 1017.9
20260506070537 16 0 0.0 0.0 0.00 0.18 0.00 81 1017.9
20260506062037 16 0 0.0 0.0 0.00 0.23 0.18 80 1017.7
20260506061549 16 0 0.0 0.0 0.00 0.23 0.18 80 1017.7
20260506061038 16 0 0.0 0.0 0.00 0.23 0.18 79 1017.7
20260506060537 16 0 0.0 0.0 0.00 0.23 0.18 80 1017.6
20260506051040 17 0 0.0 0.0 0.00 0.33 0.18 76 1017.1
20260506050537 17 0 0.0 0.0 0.00 0.33 0.18 75 1017.1
20260506045037 17 0 0.0 0.0 0.00 0.58 0.18 75 1016.8
20260506044551 17 0 0.0 0.0 0.00 0.58 0.18 74 1016.7
20260506044037 17 0 0.0 0.0 0.00 0.58 0.18 74 1016.6
20260506043539 17 0 0.0 0.0 0.00 0.58 0.18 75 1016.5
20260506043044 17 0 0.0 0.0 0.00 0.58 0.18 74 1016.5
20260506042534 17 0 0.0 0.0 0.00 0.58 0.18 74 1016.4
20260506042037 17 0 0.0 0.0 0.00 0.58 0.18 74 1016.2
20260506041544 17 0 0.0 0.0 0.00 0.58 0.18 73 1016.2
20260506041036 17 0 0.0 0.0 0.00 0.58 0.18 74 1016.1
20260506040537 17 0 0.0 0.0 0.00 0.58 0.18 74 1016.0
20260506040043 17 0 0.0 0.0 0.00 0.58 0.18 73 1015.9
20260506035537 17 0 0.0 1.6 0.00 0.66 0.18 74 1015.8
20260506035037 17 0 0.0 1.6 0.00 0.66 0.18 73 1015.8
20260506034608 17 0 0.0 1.6 0.00 0.66 0.18 73 1015.7
20260506034037 17 0 0.0 0.0 0.00 0.66 0.18 73 1015.5
20260506033537 17 0 0.0 0.0 0.00 0.66 0.18 73 1015.3
20260506033046 17 0 0.0 0.0 0.00 0.66 0.18 72 1015.3
20260506032537 17 0 0.0 0.0 0.00 0.66 0.18 72 1015.2
20260506032037 17 0 0.0 0.0 0.00 0.66 0.18 72 1015.1
20260506031551 17 0 0.0 0.0 0.00 0.66 0.18 72 1015.0
20260506031037 17 0 0.0 0.0 0.00 0.66 0.18 71 1014.9
20260506030537 17 0 0.0 0.0 0.00 0.66 0.18 71 1014.9
20260506030045 17 0 0.0 3.2 0.00 0.66 0.18 72 1014.7
20260506025540 17 0 0.0 3.2 0.00 0.71 0.18 71 1014.6
20260506025038 17 0 0.0 0.0 0.00 0.71 0.18 70 1014.5
20260506024553 17 0 0.0 3.2 0.00 0.71 0.18 70 1014.5
20260506024038 17 0 0.0 3.2 0.00 0.71 0.18 70 1014.4
20260506023538 17 0 0.0 3.2 0.00 0.71 0.18 70 1014.4
20260506023056 17 0 0.0 3.2 0.00 0.71 0.18 70 1014.2
20260506022539 17 0 0.0 3.2 0.00 0.71 0.18 69 1014.1
20260506022037 17 0 0.0 1.6 0.00 0.71 0.18 70 1014.1
20260506021550 17 0 0.0 1.6 0.00 0.71 0.18 69 1014.1
20260506021038 18 0 0.0 1.6 0.00 0.71 0.18 69 1014.0
20260506020539 18 0 0.0 1.6 0.00 0.71 0.18 69 1013.9
20260506020045 18 0 0.0 1.6 0.00 0.71 0.18 69 1013.8
20260506015537 18 0 0.0 1.6 0.00 0.71 0.18 69 1013.8
20260506015037 18 0 0.0 1.6 0.00 0.71 0.18 69 1013.8
20260506014547 18 0 0.0 0.0 0.00 0.71 0.18 69 1013.8
20260506014037 18 0 0.0 1.6 0.00 0.71 0.18 68 1013.7
20260506013540 18 0 0.0 1.6 0.00 0.71 0.18 68 1013.7
20260506013057 18 0 0.0 1.6 0.00 0.71 0.18 68 1013.7
20260506012537 18 0 0.0 0.0 0.00 0.71 0.18 68 1013.6
20260506012039 18 0 0.0 0.0 0.00 0.71 0.18 68 1013.5
20260506011547 18 0 0.0 1.6 0.00 0.71 0.18 68 1013.5
20260506011037 18 0 0.0 1.6 0.00 0.71 0.18 68 1013.4
20260506010538 18 0 0.0 1.6 0.00 0.71 0.18 67 1013.4
20260506010054 18 0 0.0 1.6 0.00 0.71 0.18 68 1013.4
20260506005537 18 0 0.0 1.6 0.00 0.71 0.18 67 1013.5
20260506005037 18 0 0.0 0.0 0.00 0.71 0.18 67 1013.4
20260506004545 18 0 0.0 1.6 0.00 0.71 0.18 67 1013.3
20260506004037 18 0 0.0 1.6 0.00 0.71 0.18 68 1013.3
20260506003537 18 0 0.0 3.2 0.00 0.71 0.18 68 1013.2
20260506003045 18 0 0.0 3.2 0.00 0.71 0.18 68 1013.2
20260506002537 18 0 0.0 1.6 0.00 0.71 0.18 68 1013.1
20260506002037 18 0 0.0 3.2 0.00 0.71 0.18 66 1013.1
20260506001554 18 0 0.0 3.2 0.00 0.71 0.18 66 1013.1
20260506001037 19 0 0.0 1.6 0.00 0.71 0.18 67 1013.2
20260506000537 19 0 0.0 1.6 0.00 0.71 0.18 66 1013.1
20260506000045 19 0 0.0 0.0 0.00 0.71 0.18 68 1013.2
20260505235537 19 0 0.0 0.0 0.00 0.71 0.18 68 1013.1
20260505235037 19 0 0.0 0.0 0.00 0.71 0.18 67 1013.1
20260505234545 19 0 0.0 1.6 0.00 0.71 0.18 67 1013.1
20260505234040 19 0 0.0 3.2 0.00 0.71 0.18 66 1013.1
20260505233538 19 0 0.0 4.8 0.00 0.71 0.18 66 1013.1
20260505233047 19 0 0.0 4.8 0.00 0.71 0.18 66 1013.1
20260505232537 20 0 0.0 4.8 0.00 0.71 0.18 65 1013.1
20260505232037 20 0 0.0 4.8 0.00 0.71 0.18 65 1013.0
20260505231545 20 0 0.0 4.8 0.00 0.71 0.18 64 1013.1
20260505231038 20 0 0.0 0.0 0.00 0.71 0.18 65 1013.2
20260505230537 19 0 0.0 3.2 0.00 0.71 0.18 65 1013.2
20260505230053 19 0 0.0 3.2 0.00 0.71 0.18 65 1013.3
20260505225538 19 0 0.0 3.2 0.00 0.71 0.18 64 1013.2
20260505225034 20 0 0.0 3.2 0.00 0.71 0.18 65 1013.3
20260505224547 20 0 0.0 1.6 0.00 0.71 0.18 65 1013.3
20260505224042 20 0 0.0 1.6 0.00 0.71 0.18 65 1013.4
20260505223537 20 0 0.0 1.6 0.00 0.71 0.18 64 1013.5
20260505223046 20 0 0.0 1.6 0.00 0.71 0.18 64 1013.5
20260505222537 20 0 0.0 1.6 0.00 0.71 0.18 65 1013.5
20260505222037 20 0 0.0 1.6 0.00 0.71 0.18 64 1013.5
20260505221544 20 0 0.0 1.6 0.00 0.71 0.18 62 1013.6
20260505221036 21 0 0.0 1.6 0.00 0.71 0.18 60 1013.6
20260505220537 21 0 0.0 0.0 0.00 0.71 0.18 60 1013.7
20260505220052 21 0 0.0 0.0 0.00 0.71 0.18 60 1013.7
20260505215538 21 0 0.0 0.0 0.00 0.71 0.18 59 1013.6
20260505215037 21 0 0.0 3.2 0.00 0.71 0.18 60 1013.8
20260505214550 21 0 0.0 3.2 0.00 0.71 0.18 61 1013.8
20260505214037 20 0 0.0 3.2 0.00 0.71 0.18 61 1013.9
20260505213537 20 0 0.0 4.8 0.00 0.71 0.18 63 1013.9
20260505213048 20 0 0.0 4.8 0.00 0.71 0.18 63 1014.0
20260505212537 19 0 0.0 0.0 0.00 0.71 0.18 63 1013.9
20260505212037 19 0 0.0 0.0 0.00 0.71 0.18 67 1014.0
20260505211548 18 0 0.0 3.2 0.00 0.71 0.18 67 1014.1
20260505211036 18 0 0.0 4.8 0.00 0.71 0.18 66 1014.1
20260505210537 18 0 0.0 4.8 0.00 0.71 0.18 68 1014.1
20260505210047 18 180 0.0 1.6 0.00 0.71 0.18 66 1014.1
20260505205537 18 0 0.0 0.0 0.00 0.71 0.18 67 1014.1
20260505205037 18 0 0.0 0.0 0.00 0.71 0.18 67 1014.2
20260505204550 18 0 0.0 0.0 0.00 0.71 0.18 69 1014.2
20260505204037 18 0 0.0 0.0 0.00 0.71 0.18 69 1014.2
20260505203537 18 0 0.0 0.0 0.00 0.71 0.18 68 1014.3
20260505203049 18 0 0.0 0.0 0.00 0.71 0.18 69 1014.3
20260505202538 17 0 0.0 0.0 0.00 0.71 0.18 70 1014.3
20260505202040 17 0 0.0 0.0 0.00 0.71 0.18 71 1014.3
20260505201554 17 0 0.0 0.0 0.00 0.71 0.18 70 1014.4
20260505201037 17 0 0.0 1.6 0.00 0.71 0.18 70 1014.5
20260505200536 17 0 0.0 1.6 0.00 0.71 0.18 71 1014.6
20260505200049 17 0 0.0 1.6 0.00 0.71 0.18 72 1014.6
20260505195537 17 0 0.0 1.6 0.00 0.71 0.18 71 1014.6
20260505195037 17 135 0.0 4.8 0.00 0.71 0.18 71 1014.6
20260505194552 17 0 0.0 4.8 0.00 0.71 0.18 71 1014.6
20260505194037 17 0 0.0 3.2 0.00 0.71 0.18 70 1014.6
20260505193537 17 0 0.0 3.2 0.00 0.71 0.18 68 1014.6
20260505193046 17 0 0.0 3.2 0.00 0.71 0.18 68 1014.7
20260505192537 17 138 0.0 0.0 0.00 0.71 0.18 72 1014.7
20260505192037 17 0 0.0 3.2 0.00 0.71 0.18 71 1014.9
20260505191602 17 0 0.0 3.2 0.00 0.71 0.18 70 1014.9
20260505191039 17 0 0.0 1.6 0.00 0.71 0.18 72 1014.9
20260505190541 17 0 0.0 1.6 0.00 0.71 0.18 71 1014.9
20260505190055 17 0 0.0 1.6 0.00 0.71 0.18 71 1014.7
20260505185537 17 0 0.0 1.6 0.00 0.71 0.18 71 1014.8
20260505185037 17 0 0.0 1.6 0.00 0.71 0.18 72 1014.9
20260505184548 17 0 0.0 1.6 0.00 0.71 0.18 72 1014.9
20260505184037 17 0 0.0 1.6 0.00 0.71 0.18 76 1014.9
20260505183537 17 0 0.0 1.6 0.00 0.71 0.18 77 1014.9
20260505183110 16 0 0.0 1.6 0.00 0.71 0.18 79 1014.9
20260505182537 16 0 0.0 3.2 0.00 0.71 0.18 79 1015.0
20260505182037 16 0 0.0 3.2 0.00 0.71 0.18 80 1015.1
20260505181543 16 0 0.0 3.2 0.00 0.71 0.18 80 1015.1
20260505181037 16 0 0.0 1.6 0.00 0.71 0.18 81 1015.2
20260505180536 15 0 0.0 0.0 0.00 0.71 0.18 83 1015.1
20260505180131 15 0 0.0 1.6 0.00 0.71 0.18 85 1015.0
20260505175539 15 0 0.0 1.6 0.00 0.71 0.18 85 1015.1
20260505175037 15 0 0.0 1.6 0.00 0.71 0.18 84 1015.1
20260505174545 15 0 0.0 0.0 0.00 0.71 0.18 86 1015.1
20260505174038 14 0 0.0 0.0 0.00 0.71 0.18 87 1015.1
20260505173537 14 0 0.0 0.0 0.00 0.71 0.18 88 1015.1
20260505173051 14 0 0.0 0.0 0.00 0.71 0.18 89 1015.1
20260505172541 13 0 0.0 0.0 0.00 0.71 0.18 88 1015.2
20260505172037 13 0 0.0 0.0 0.00 0.71 0.18 90 1015.1
20260505171557 13 0 0.0 0.0 0.00 0.71 0.18 90 1015.1
20260505171037 13 0 0.0 0.0 0.00 0.71 0.18 90 1015.1
20260505170537 13 0 0.0 0.0 0.00 0.71 0.18 90 1015.0
20260505170046 13 0 0.0 0.0 0.00 0.71 0.18 91 1015.0
20260505165537 13 0 0.0 0.0 0.00 0.71 0.18 91 1015.0
20260505165038 12 0 0.0 0.0 0.00 0.71 0.18 91 1015.0
20260505164547 12 0 0.0 0.0 0.00 0.71 0.18 92 1015.0
20260505164037 12 0 0.0 0.0 0.00 0.71 0.18 92 1015.1
20260505163538 12 0 0.0 0.0 0.00 0.71 0.18 92 1015.1
20260505163049 12 0 0.0 0.0 0.00 0.71 0.18 92 1015.1
20260505162536 12 0 0.0 0.0 0.00 0.71 0.18 92 1015.1
20260505162037 12 0 0.0 0.0 0.00 0.71 0.18 92 1015.1
20260505161558 12 0 0.0 0.0 0.00 0.71 0.18 92 1015.0
20260505161038 12 0 0.0 0.0 0.00 0.71 0.18 92 1015.1
20260505160541 12 0 0.0 1.6 0.00 0.71 0.18 92 1015.0
20260505153044 12 0 0.0 0.0 0.00 0.71 0.18 93 1015.0
20260505152536 12 0 0.0 0.0 0.00 0.71 0.18 93 1015.0
20260505152036 12 0 0.0 0.0 0.00 0.71 0.18 93 1014.9
20260505151547 12 0 0.0 0.0 0.00 0.71 0.18 93 1014.9
20260505151038 12 0 0.0 0.0 0.00 0.71 0.18 93 1014.8
20260505150537 12 0 0.0 0.0 0.00 0.71 0.18 93 1014.7
20260505140537 12 0 0.0 0.0 0.00 0.71 0.18 93 1014.4
20260505125037 11 0 0.0 0.0 0.03 0.71 0.18 93 1014.0
20260505124551 11 0 0.0 0.0 0.03 0.71 0.18 93 1014.0
20260505124038 11 0 0.0 0.0 0.03 0.71 0.18 93 1013.9
20260505123541 11 0 0.0 0.0 0.03 0.71 0.18 93 1014.0
20260505123050 11 0 0.0 0.0 0.03 0.71 0.18 93 1014.0
20260505122538 11 0 0.0 0.0 0.03 0.71 0.18 93 1014.0
20260505122038 11 0 0.0 0.0 0.03 0.71 0.18 93 1014.0
20260505121553 11 0 0.0 0.0 0.03 0.71 0.18 93 1014.0
20260505121039 11 0 0.0 0.0 0.03 0.71 0.18 93 1014.0
20260505120537 11 0 0.0 0.0 0.03 0.71 0.18 93 1014.0
20260505120105 12 0 0.0 0.0 0.03 0.71 0.18 93 1013.9
20260505115537 11 0 0.0 0.0 0.00 0.69 0.15 93 1013.9
20260505115037 11 0 0.0 0.0 0.00 0.69 0.15 93 1013.9
20260505114547 11 0 0.0 0.0 0.00 0.69 0.15 93 1013.9
20260505114036 11 0 0.0 0.0 0.00 0.69 0.15 93 1013.9
20260505113536 11 0 0.0 0.0 0.00 0.69 0.15 93 1013.9
20260505113049 11 0 0.0 0.0 0.03 0.69 0.15 93 1014.0
20260505112537 12 0 0.0 0.0 0.03 0.69 0.15 93 1013.9
20260505112039 12 0 0.0 0.0 0.03 0.69 0.15 93 1014.0
20260505111547 12 0 0.0 0.0 0.03 0.69 0.15 93 1014.0
20260505111039 12 0 0.0 0.0 0.03 0.69 0.15 93 1014.0
20260505110539 12 0 0.0 0.0 0.03 0.69 0.15 93 1014.0